Location: Rounton
(54.4000°N, 1.3500°W)
Time: 02:24:53
(UTC+00:00)

SR - Pass Details

Date: 06 December 2021
Orbit: 582 x 872 km, 66.7° (Epoch: 26 January)

Event Time Altitude Azimuth Distance (km) Brightness Sun altitude
Exits shadow 06:34:44 15° 324° (NW) 1,615 ? -12.8°
Maximum altitude 06:38:13 65° 44° (NE) 661 ? -12.4°
Drops below altitude 10° 06:42:38 10° 127° (SE) 1,985 ? -11.8°
Sets 06:44:58 0° 131° (SE) 2,925 ? -11.4°
